Temp_Advection
nan nan nan nan nan nan nan nan nan nan nan nan nan nan nan nan nan nan nan nan nan nan nan nan nan nan nan nan nan nan nan nan nan
nan -0 0 0 -0 -0 -0 -0 -0 -0 -0 -0 -0 -0 -0 -0 -0 -0 -0 -0 -0 -0 -0 0 0 0 -0 -0 0 -0 -0 -0 nan
nan 0 0 0 -0 -0 -0 -0 -0 -0 -0 -0 -0 -0 -0 -0 0 0 -0 -0 -0 -0 -0 -0 -0 0 0 -0 -0 0 -0 -0 nan
nan 0 -0 0 -0 -0 -0 -0 -0 -0 -0 -0 0 0 0 -0 -0 -0 -0 -0 -0 -0 -0 0 0 -0 -0 0 -0 -0 -0 -0 nan
nan -0 -0 -0 0 -0 -0 0 -0 -0 -0 -0 -0 -0 0 -0 -0 -0 -0 -0 -0 -0 -0 -0 -0 0 0 -0 0 0 -0 -0 nan
nan 0 0 0 0 -0 0 -0 -0 -0 -0 -0 -0 -0 -0 -0 -0 -0 -0 -0 -0 -0 -0 -0 -0 -0 -0 -0 0 0 0 -0 nan
nan 0 0 0 0 -0 -0 0 -0 -0 -0 -0 -0 -0 -0 -0 -0 -0 -0 -0 0 -0 -0 -0 -0 -0 -0 -0 -0 -0 -0 -0 nan
nan 0 0 0 0 -0 -0 -0 0 0 -0 0 0 0 -0 -0 0 -0 -0 0 0 -0 -0 -0 -0 -0 -0 -0 -0 -0 -0 -0 nan
nan 0 0 0 0 -0 -0 -0 -0 0 0 -0 -0 0 0 0 -0 -0 -0 0 0 0 0 -0 -0 -0 -0 -0 -0 -0 -0 -0 nan
nan -0 -0 -0 0 -0 -0 0 0 -0 -0 -0 -0 -0 -0 -0 -0 -0 -0 -0 -0 -0 -0 -0 -0 -0 -0 -0 -0 -0 -0 -0 nan
nan 0 0 0 0 0 0 -0 -0 0 -0 -0 -0 -0 -0 -0 -0 -0 -0 -0 -0 -0 -0 -0 -0 -0 -0 -0 -0 -0 -0 -0 nan
nan 0 0 0 0 0 -0 0 0 0 0 -0 -0 -0 -0 -0 0 0 0 -0 -0 -0 -0 -0 -0 -0 -0 -0 -0 -0 -0 -0 nan
nan 0 0 0 -0 -0 0 0 0 0 0 0 0 0 0 0 0 0 0 -0 -0 -0 -0 -0 -0 -0 -0 -0 -0 -0 -0 -0 nan
nan 0 0 0 -0 -0 -0 -0 -0 -0 -0 -0 -0 -0 0 0 0 0 0 -0 -0 -0 -0 -0 -0 -0 -0 -0 -0 -0 -0 -0 nan
nan 0 -0 -0 0 0 -0 -0 -0 -0 -0 -0 -0 -0 0 0 0 0 -0 -0 0 -0 -0 -0 -0 -0 -0 -1 -0 -0 -0 -0 nan
nan -0 -0 0 0 -0 -0 -0 -0 -0 -0 -1 -1 -0 -0 0 0 0 0 -0 -0 -0 -0 -0 -0 -1 -0 -0 -0 -0 -0 -0 nan
nan -0 0 0 0 -0 -0 -0 -0 -0 -1 -1 -1 -1 -1 0 -0 0 0 0 -0 -0 -0 -0 -0 -1 -1 -1 -0 -1 -1 -0 nan
nan 0 0 0 0 -0 -0 -0 -0 -0 -1 -1 -1 -0 -0 -3 -0 -1 -0 -1 -1 -1 -1 -1 -0 -1 -1 -1 -1 -1 -1 -1 nan
nan 0 0 0 -0 -0 -0 -0 -0 -0 -0 -0 -0 -0 0 0 -1 -2 -2 -1 -2 -1 -1 -1 -1 -1 -1 -1 -1 -1 -2 0 nan
nan nan nan nan nan nan nan nan nan nan nan nan nan nan nan nan nan nan nan nan nan nan nan nan nan nan nan nan nan nan nan nan nan
Wind_Speed
6 6 7 7 8 9 9 8 6 5 4 3 2 2 3 4 4 4 4 4 3 3 4 7 8 12 13 8 10 10 13 12 12
0 3 5 6 7 7 7 6 5 5 4 4 4 3 3 3 3 3 3 3 4 4 2 3 6 7 9 10 10 10 9 14 16
6 1 2 4 4 5 5 6 7 7 8 7 6 4 4 3 3 3 3 3 4 4 4 5 5 6 10 8 9 9 9 10 12
6 3 1 2 3 4 5 6 6 6 6 5 5 6 7 8 7 7 8 9 8 8 9 9 10 9 9 10 11 11 11 12 12
8 5 4 4 4 5 4 4 4 3 5 7 8 8 10 10 9 9 10 9 9 10 12 11 12 11 14 16 16 16 16 16 16
8 8 6 5 4 2 1 2 3 6 7 9 11 11 11 11 11 11 11 11 11 11 12 13 14 15 17 16 14 15 19 20 20
8 7 5 3 2 0 2 4 6 7 9 11 12 12 11 12 12 12 12 12 12 13 14 15 14 15 15 17 17 17 16 16 18
7 6 4 3 1 3 4 5 8 9 11 13 14 14 14 14 14 14 14 14 14 14 15 14 15 16 16 18 18 17 17 18 17
6 5 4 3 1 3 5 7 10 12 14 15 14 13 14 16 17 18 17 17 17 16 14 15 18 17 17 17 17 18 19 19 22
5 4 3 4 3 5 8 11 13 14 13 13 15 16 17 18 18 17 16 15 14 14 14 16 16 15 15 15 18 19 20 21 23
5 4 5 4 6 8 11 13 12 13 15 16 17 17 17 17 16 14 13 11 11 11 12 15 16 16 16 18 20 21 23 24 26
6 5 6 8 8 11 11 12 15 16 16 17 17 16 16 15 14 12 11 10 10 12 13 15 16 17 17 19 20 21 24 26 29
7 5 8 9 9 8 11 14 16 17 17 16 16 15 15 15 14 12 10 10 12 14 16 18 18 18 19 21 22 24 26 28 30
7 6 9 8 6 9 12 14 16 15 14 12 13 14 14 13 12 12 11 13 16 16 19 20 20 22 25 27 28 29 31 31 32
8 9 7 5 6 9 11 13 14 15 16 14 14 12 8 8 10 11 10 15 20 21 21 23 27 25 28 30 30 30 32 33 33
8 9 7 5 5 7 10 12 15 16 18 18 16 9 5 13 8 11 14 19 24 20 22 28 29 29 28 28 30 31 32 33 33
11 10 7 5 6 8 10 13 15 17 19 19 15 8 7 4 16 19 21 22 18 25 22 27 28 28 30 29 30 31 32 33 33
12 9 7 5 6 9 12 14 14 16 18 17 12 7 4 25 5 23 13 24 26 31 30 29 31 29 29 30 31 31 32 33 32
13 10 7 6 7 10 12 15 16 16 15 16 16 14 14 9 14 16 29 26 36 34 34 36 30 31 29 30 29 31 33 32 29
13 10 7 6 8 10 13 15 16 16 17 17 18 18 18 18 17 25 29 38 36 37 41 34 35 32 31 32 34 36 30 29 29
Wind_Direction
99 64 62 69 79 82 85 92 98 98 96 85 125 104 76 54 24 34 24 12 352 317 251 231 235 239 258 277 295 245 232 230 243
93 36 49 66 72 75 81 86 83 77 68 57 56 48 29 30 22 27 20 11 360 359 341 275 280 257 258 256 265 277 262 248 257
178 358 36 71 72 72 71 71 65 60 57 52 43 29 22 12 359 344 319 307 317 326 339 339 328 287 267 267 276 285 280 278 262
153 191 210 107 91 84 85 77 70 56 38 5 349 338 331 323 312 311 308 307 310 316 309 300 294 285 270 264 269 279 286 286 284
168 180 175 135 126 107 83 78 56 17 347 328 320 314 302 299 304 315 310 307 301 302 300 294 293 297 285 276 270 270 275 282 286
181 174 172 162 146 122 97 357 352 332 316 313 317 315 304 302 306 305 305 306 302 293 292 293 295 298 294 291 292 280 273 274 274
170 173 171 169 167 335 332 340 343 327 314 313 314 319 314 311 308 306 305 303 298 295 289 291 293 292 296 294 291 285 281 281 275
181 183 189 208 249 317 310 319 317 301 301 308 309 311 310 308 307 302 304 302 298 292 294 292 287 286 287 287 287 285 280 276 276
186 194 218 214 254 276 300 299 295 300 304 305 308 308 305 302 302 301 300 296 293 292 290 286 286 291 290 286 278 278 279 278 282
196 179 201 265 263 284 290 292 297 300 303 303 304 304 304 302 300 299 297 297 294 288 288 289 293 292 289 282 278 277 276 277 277
211 247 266 262 267 291 293 299 300 301 303 304 303 302 303 303 302 300 298 296 292 295 295 294 296 293 288 284 285 286 284 282 280
227 262 278 271 284 289 298 305 307 307 307 309 308 308 307 305 300 295 294 299 302 305 305 302 298 294 292 291 291 291 289 287 286
224 261 282 277 281 293 304 307 307 310 309 309 307 305 304 301 290 283 286 295 302 308 311 308 305 303 302 301 298 295 289 287 286
228 249 276 254 275 301 306 313 313 316 320 324 316 311 301 291 280 276 285 296 298 305 311 312 308 305 303 302 302 299 296 293 292
233 253 254 246 284 305 319 326 329 334 337 339 333 321 304 294 276 268 289 311 300 292 306 307 310 309 308 305 302 299 295 294 294
236 235 226 252 289 314 333 341 340 338 341 343 350 340 307 298 273 272 273 305 310 302 308 302 308 310 308 304 302 299 298 296 295
205 215 231 254 299 329 342 346 343 344 347 353 355 343 334 163 316 284 290 288 303 305 308 311 315 315 312 310 307 304 302 300 297
204 214 232 268 311 333 340 344 345 346 347 350 2 345 312 315 293 309 302 305 309 315 319 322 322 320 318 315 311 307 304 301 299
202 216 237 281 318 334 338 341 342 344 345 343 343 338 323 319 314 311 310 314 316 321 325 326 326 322 319 314 310 307 303 301 299
204 219 251 294 320 330 336 338 339 340 339 337 334 329 322 316 303 305 310 313 318 320 324 323 324 323 320 317 315 313 306 304 298
Height
1534 1534 1534 1534 1534 1534 1534 1535 1535 1534 1534 1534 1534 1534 1533 1532 1532 1530 1530 1530 1529 1528 1528 1528 1529 1529 1529 1529 1528 1528 1528 1529 1529
1535 1535 1536 1535 1535 1535 1534 1535 1534 1534 1534 1534 1534 1534 1533 1532 1531 1530 1529 1529 1529 1528 1527 1527 1527 1527 1527 1526 1527 1526 1526 1526 1526
1535 1536 1536 1535 1535 1535 1535 1535 1535 1535 1535 1535 1534 1535 1533 1532 1531 1530 1529 1528 1528 1527 1527 1526 1526 1525 1525 1525 1525 1524 1524 1523 1523
1534 1536 1536 1535 1536 1536 1536 1535 1535 1535 1535 1535 1534 1535 1533 1532 1530 1529 1528 1528 1528 1527 1526 1525 1524 1524 1523 1522 1522 1522 1522 1521 1521
1534 1535 1535 1535 1535 1536 1536 1536 1534 1535 1534 1535 1534 1533 1532 1530 1529 1527 1527 1527 1526 1525 1524 1523 1522 1521 1521 1520 1519 1519 1519 1518 1518
1533 1534 1534 1535 1535 1536 1536 1535 1534 1534 1533 1533 1533 1532 1531 1529 1528 1527 1526 1525 1524 1523 1522 1521 1520 1519 1518 1517 1516 1515 1514 1514 1514
1533 1533 1534 1535 1535 1535 1535 1534 1533 1533 1532 1531 1531 1529 1529 1528 1526 1525 1524 1523 1522 1521 1520 1519 1518 1516 1515 1513 1512 1512 1511 1510 1510
1532 1533 1533 1534 1534 1534 1534 1533 1532 1532 1531 1529 1528 1526 1526 1525 1524 1522 1521 1521 1520 1518 1517 1515 1514 1513 1513 1511 1510 1508 1507 1506 1506
1531 1532 1532 1533 1533 1533 1532 1532 1530 1530 1528 1527 1525 1523 1523 1522 1520 1519 1518 1517 1516 1515 1514 1512 1510 1510 1509 1508 1506 1505 1503 1502 1502
1530 1530 1531 1531 1531 1531 1531 1530 1529 1528 1526 1524 1521 1520 1519 1518 1516 1515 1514 1513 1512 1511 1510 1508 1507 1506 1506 1504 1502 1501 1499 1498 1497
1528 1528 1529 1529 1530 1529 1528 1528 1526 1525 1523 1520 1518 1516 1514 1513 1512 1511 1510 1510 1509 1508 1507 1505 1504 1503 1502 1500 1498 1497 1494 1493 1491
1526 1526 1526 1527 1527 1526 1526 1525 1524 1522 1520 1516 1514 1511 1510 1509 1508 1508 1507 1507 1506 1505 1503 1502 1500 1498 1497 1495 1494 1492 1490 1488 1486
1523 1523 1524 1525 1524 1524 1524 1523 1521 1519 1518 1515 1511 1508 1506 1505 1505 1505 1505 1504 1503 1501 1499 1497 1495 1494 1492 1490 1488 1486 1484 1482 1480
1520 1521 1521 1522 1522 1522 1522 1520 1519 1516 1514 1512 1508 1506 1503 1501 1501 1502 1501 1500 1499 1498 1496 1494 1491 1489 1487 1484 1482 1479 1477 1475 1473
1518 1518 1519 1520 1520 1520 1519 1517 1516 1512 1510 1508 1505 1502 1500 1499 1499 1499 1498 1497 1495 1493 1491 1489 1487 1484 1481 1478 1475 1473 1470 1468 1466
1515 1516 1517 1518 1518 1518 1517 1515 1512 1509 1506 1504 1502 1500 1498 1496 1496 1497 1495 1493 1491 1489 1487 1485 1482 1478 1475 1472 1469 1466 1463 1460 1458
1513 1514 1516 1516 1516 1515 1514 1512 1510 1506 1503 1501 1497 1497 1496 1494 1494 1492 1492 1490 1488 1486 1483 1480 1477 1473 1469 1465 1462 1459 1456 1453 1450
1511 1512 1514 1514 1514 1512 1511 1510 1508 1504 1501 1499 1499 1497 1495 1490 1487 1488 1485 1484 1481 1478 1476 1473 1469 1466 1461 1457 1454 1451 1447 1444 1441
1508 1510 1511 1511 1510 1509 1508 1506 1505 1502 1500 1498 1496 1495 1494 1491 1483 1479 1477 1474 1471 1468 1466 1464 1461 1458 1454 1450 1447 1443 1439 1436 1433
1506 1507 1508 1508 1507 1506 1505 1503 1501 1499 1497 1496 1494 1492 1490 1488 1485 1474 1470 1467 1464 1461 1458 1456 1454 1450 1447 1442 1438 1434 1430 1427 1425